Location: Wapato
(46.4478°N, 120.4212°W)
Time: 11:21:32
(UTC+00:00)

Vanguard 2 - All Passes

Search period start: 15 May 2026 00:00
Search period end: 25 May 2026 00:00
Orbit: 553 x 2895 km, 32.9° (Epoch: 14 May)

Date Brightness Start Highest point End Pass type
(mag) Time Alt. Az. Time Alt. Az. Time Alt. Az.
15 May - 08:10:07 10° SSW 08:22:48 27° SE 08:35:28 10° E visible
15 May - 10:16:46 10° SW 10:32:39 44° SSE 10:46:24 10° E visible
15 May - 12:26:59 10° WSW 12:42:58 47° S 12:54:49 10° ESE daylight
15 May - 14:39:16 10° W 14:51:59 33° SSW 15:01:01 10° SSE daylight
15 May - 16:56:39 10° WSW 16:58:50 11° SW 17:00:51 10° SW daylight
16 May - 06:21:18 10° SE 06:25:29 11° SE 06:29:49 10° ESE visible
16 May - 08:20:25 10° SSW 08:33:57 31° SSE 08:47:35 10° E visible
16 May - 10:27:53 10° SW 10:44:03 47° S 10:58:02 10° ESE visible
16 May - 12:38:29 10° WSW 12:54:21 46° SSW 13:06:12 10° ESE daylight
16 May - 14:51:06 10° W 15:03:08 29° SSW 15:11:53 10° SSE daylight
17 May - 06:28:31 10° SSE 06:36:24 16° SE 06:44:49 10° ESE visible
17 May - 08:30:59 10° SSW 08:45:08 36° SSE 08:59:31 10° E visible
17 May - 10:39:07 10° WSW 10:55:27 49° S 11:09:36 10° ESE visible
17 May - 12:50:01 10° W 13:05:43 44° SSW 13:17:31 10° SE daylight
17 May - 15:03:06 10° W 15:14:12 25° SW 15:22:34 10° S daylight
18 May - 06:37:35 10° S 06:47:20 20° SE 06:58:03 10° E visible
18 May - 08:41:47 10° SW 08:56:23 40° SSE 09:11:19 10° E visible
18 May - 10:50:28 10° WSW 11:06:53 50° S 11:21:07 10° ESE visible
18 May - 13:01:37 10° W 13:17:01 42° SSW 13:28:44 10° SE daylight
18 May - 15:15:22 10° W 15:25:11 21° SW 15:32:55 10° S daylight
19 May - 06:47:23 10° S 06:58:19 24° SE 07:10:38 10° E visible
19 May - 08:52:45 10° SW 09:07:40 44° SSE 09:22:59 10° E visible
19 May - 11:01:52 10° WSW 11:18:17 50° S 11:32:34 10° ESE visible
19 May - 13:13:17 10° W 13:28:15 38° SSW 13:39:49 10° SE daylight
19 May - 15:28:03 10° WSW 15:36:06 17° SW 15:42:46 10° SSW daylight
20 May - 06:57:37 10° SSW 07:09:21 29° SE 07:22:50 10° E visible
20 May - 09:03:52 10° SW 09:18:59 47° SSE 09:34:37 10° E visible
20 May - 11:13:19 10° WSW 11:29:40 49° S 11:43:58 10° ESE visible
20 May - 13:25:02 10° W 13:39:25 34° SSW 13:50:45 10° SSE daylight
20 May - 15:41:41 10° WSW 15:46:57 13° SW 15:51:38 10° SSW daylight
21 May - 05:08:20 10° SSE 05:12:37 12° SE 05:17:14 10° ESE visible
21 May - 07:08:10 10° SSW 07:20:25 33° SSE 07:34:49 10° E visible
21 May - 09:15:06 10° WSW 09:30:20 49° S 09:46:11 10° ESE visible
21 May - 11:24:50 10° WSW 11:41:02 48° SSW 11:55:16 10° SE visible
21 May - 13:36:54 10° W 13:50:31 30° SW 14:01:29 10° SSE daylight
22 May - 05:16:27 10° SSE 05:23:27 16° SE 05:31:32 10° ESE visible
22 May - 07:18:57 10° SSW 07:31:34 37° SSE 07:46:38 10° E visible
22 May - 09:26:25 10° WSW 09:41:43 50° S 09:57:42 10° ESE visible
22 May - 11:36:25 10° W 11:52:22 45° SSW 12:06:28 10° SE visible
22 May - 13:48:58 10° W 14:01:33 26° SW 14:11:57 10° S daylight
23 May - 05:25:56 10° S 05:34:20 20° SE 05:44:30 10° E visible
23 May - 07:29:55 10° SW 07:42:45 41° SSE 07:58:20 10° E visible
23 May - 09:37:49 10° WSW 09:53:07 51° S 10:09:09 10° ESE visible
23 May - 11:48:03 10° W 12:03:39 42° SSW 12:17:34 10° SE daylight
23 May - 14:01:18 10° W 14:12:30 22° SW 14:22:05 10° S daylight
24 May - 05:36:02 10° S 05:45:17 24° SE 05:56:54 10° E visible
24 May - 07:41:01 10° SW 07:54:01 44° SSE 08:09:58 10° E visible
24 May - 09:49:16 10° WSW 10:04:30 50° S 10:20:31 10° ESE visible
24 May - 11:59:45 10° W 12:14:52 38° SSW 12:28:30 10° SE daylight
24 May - 14:14:07 10° W 14:23:25 17° SW 14:31:39 10° S daylight
